Location: Ellingshausen
(50.5460°N, 10.4723°E)
Time: 23:13:40
(UTC+00:00)

SL-23 DEB - Pass Details

Date: 18 January 2026
Orbit: 423 x 3435 km, 51.4° (Epoch: 17 February)

Event Time Altitude Azimuth Distance (km) Brightness Sun altitude
Exits shadow 05:57:50 16° 264° (W) 1,218 5.0 -11.2°
Maximum altitude 06:00:17 81° 352° (N) 443 3.3 -10.9°
Drops below altitude 10° 06:03:50 10° 80° (E) 1,716 7.4 -10.3°
Sets 06:06:19 0° 81° (E) 2,827 8.6 -10.0°
